Tracking 35051 objects as of 17-Aug-2026
HD Live streaming from Space Station
objects crossing your sky now

THORAD AGENA D DEB


THORAD AGENA D DEB is no longer on orbit


NORAD ID: 5165
Int'l Code: 1970-025JY
Launch date: April 8, 1970
Source: United States (US)
Launch site: AIR FORCE WESTERN TEST RANGE (AFWTR)
Decay date: 2022-06-25

Note: This is SATELLITE DEBRIS
Your satellite tracking list
Your tracking list is empty




NASA's NSSDC Master Catalog

Two Line Element Set (TLE):
1 05165U 70025JY  22175.46134947  .14606460  38590-5  74136-2 0  9996
2 05165  99.6519  16.8328 0015516 275.6665  84.2846 16.20274835701795
Source of the keplerian elements: AFSPC